Location: Glenbow
(51.1592°N, 114.3828°W)
Time: 20:34:53
(UTC+00:00)

Envisat - Pass Details

Date: 08 December 2021
Orbit: 764 x 766 km, 98.2° (Epoch: 26 January)

Event Time Altitude Azimuth Distance (km) Brightness Sun altitude
Rises 00:59:39 0° 209° (SSW) 3,223 7.1 -13.1°
Reaches altitude 10° 01:02:39 10° 228° (SW) 2,303 6.6 -13.5°
Maximum altitude 01:06:08 18° 272° (W) 1,794 5.9 -14.0°
Drops below altitude 10° 01:09:39 10° 315° (NW) 2,315 5.8 -14.5°
Sets 01:12:41 0° 334° (NNW) 3,247 6.4 -15.0°
